Погода в Тапачуле

Мексика     14°54′21″N   92°15′53″W
темп.,
°C
ветер,
м/с
пор.,
м/с
влажн.,
%
обл.,
%
осадки,
мм/ч
давл.,
гПа
погр.,
м
24 сентября, пт
пт2401:00+21св2292100 5.4 101328
04:00+21ссв229282 1.7 101227
07:00+20св228881 1.9 101326
10:00+26ююз117099 0.0 1014446
13:00+28юз2273100 1.0 1013989
16:00+25юз2287100 6.9 1010314
19:00+23з009495 13.6 101118
22:00+21в3598100 23.2 1014203
25 сентября, сб
сб2501:00+21ссв2193100 27.3 101328
04:00+21ссв229233 0.1 101226
07:00+20ссв218976 0.1 101224
10:00+26юз117075 0.0 1014433
13:00+28юз226930 0.3 1013954
16:00+27зюз227753 1.5 1011808
19:00+23зюз019553 4.1 101115
22:00+21св229441 7.4 101532
26 сентября, вс
вс2601:00+20св22918 12.4 101530
04:00+20св228997 0.2 101426
07:00+20ссв228736 0.2 101424
10:00+26юз21686 0.0 1015454
13:00+28юз326725 0.1 10141097
16:00+27зюз227869 2.5 1011719
19:00+23зюз119491 6.4 101383
22:00+22с119597 4.8 101623
27 сентября, пн
пн2701:00+22всв119454 5.6 101516
04:00+21св219251 0.1 101422
07:00+20св228864 0.1 101427
10:00+26зюз22735 0.0 1015553
13:00+27зюз327671 0.9 1014914
16:00+25зюз2286100 7.4 1011523
19:00+23сз119497 12.9 101278
22:00+21в1298100 9.8 1014118
28 сентября, вт
вт2801:00+21в1298100 22.7 101475
04:00+21всв1196100 4.0 101343
07:00+21в119598 5.2 101330
10:00+24зюз118259 0.2 1015373
13:00+26юз217881 1.6 1013823
16:00+25юз118787 4.3 1011353
19:00+22всв1195100 9.6 101252
22:00+21ссв2296100 10.0 101364